Location: ??
(34.9230°N, 135.7737°E)
Time: 08:28:27
(UTC+00:00)

Daily predictions for brighter satellites

Satellite Brightness Start Highest point End
(mag) Time Altitude Azimuth Time Altitude Azimuth Time Altitude Azimuth
NOSS 3-4 (A) 4.1 12:02:31 10° NW 12:09:41 63° WSW 12:10:40 58° SSW
NOSS 3-4 (C) 4.1 12:02:37 10° NW 12:09:48 63° WSW 12:10:45 59° SSW
Terra 4.4 12:28:04 12° N 12:28:04 12° N 12:28:32 10° N
USA 234 4.3 12:26:06 10° NNE 12:32:06 41° NW 12:38:07 10° WSW
ATLAS 2AS CENTAUR R/B 3.9 12:35:19 10° NW 12:41:31 32° WSW 12:41:31 32° WSW
CZ-4C R/B 4.4 12:51:25 10° N 12:56:07 24° NNE 12:56:07 24° NNE
ADEOS II 4.5 16:41:52 10° NNE 16:43:28 18° NE 16:43:28 18° NE
USA 267 4.1 16:57:45 10° NE 17:02:07 43° ENE 17:02:07 43° ENE
ARIANE 5 R/B 4.5 17:06:41 10° NNE 17:09:17 26° NE 17:09:17 26° NE
USA 238 DEB 4.2 17:21:47 54° NNE 17:21:47 54° NNE 17:26:53 10° NNE
USA 238 4.2 17:21:52 54° NNE 17:21:52 54° NNE 17:27:01 10° NNE
CZ-2D R/B 4.3 17:17:39 10° N 17:19:08 18° NNW 17:19:08 18° NNW
Cosmos 2237 Rocket 3.7 17:27:24 10° NNW 17:30:08 29° N 17:30:08 29° N
NOSS 3-2 (A) 4.0 17:45:55 46° N 17:45:55 46° N 17:50:37 10° NNE
Cosmos 2297 Rocket 3.2 17:49:23 38° N 17:49:23 38° N 17:53:02 10° NNE
CENTAUR R/B 2.5 17:50:17 69° ENE 17:50:17 69° ENE 17:56:13 10° NE
Cosmos 2279 Rocket 4.4 17:49:47 10° N 17:55:58 59° E 17:58:21 37° SE
Meteor 1-18 Rocket 4.4 18:02:15 64° NNW 18:02:15 64° NNW 18:07:08 10° N
Cosmos 1048 Rocket 4.2 18:05:48 10° NNW 18:11:10 71° ENE 18:12:43 46° SE
BREEZE-M DEB 4.1 18:12:46 60° WNW 18:13:25 64° NNW 18:28:30 10° NE
Cosmos 2227 Rocket 3.2 18:15:14 34° NW 18:15:14 34° NW 18:19:19 10° N
Sich 1 Rocket 4.3 18:10:04 10° N 18:13:23 48° NNE 18:13:23 48° NNE
Cosmos 1125 Rocket 3.9 18:16:17 52° NNW 18:16:17 52° NNW 18:20:40 10° N
NOSS 3-2 (C) 3.5 18:16:09 56° NW 18:16:09 56° NW 18:22:09 10° NNE
STARLINK-1061 4.4 18:25:58 45° N 18:25:58 45° N 18:29:08 10° NE
ADEOS II 3.7 18:21:58 10° NNW 18:24:24 21° NW 18:24:24 21° NW
Cosmos 2180 Rocket 4.4 18:21:45 10° N 18:28:00 85° E 18:33:39 13° S
STARLINK-1067 4.4 18:30:47 45° N 18:30:47 45° N 18:34:07 10° NE
STARLINK-1058 4.3 18:35:33 44° NNW 18:35:33 44° NNW 18:39:02 10° NE
CZ-2C R/B 4.0 18:32:48 10° N 18:35:18 33° NNW 18:35:18 33° NNW
STARLINK-1043 4.3 18:40:20 42° NNW 18:40:20 42° NNW 18:44:00 10° NNE
STARLINK-1065 4.3 18:41:00 41° NNW 18:41:00 41° NNW 18:44:40 10° NNE
IDEFIX/ARIANE 42P 2.5 18:35:35 10° N 18:40:43 64° WNW 18:41:33 55° WSW
CBERS 1 LM4 rocket 4.5 18:38:41 10° NNE 18:43:41 81° ESE 18:46:17 30° S
Gbstr 26 Del rocket 4.3 18:42:48 30° SSW 18:45:46 54° SE 18:51:06 10° ENE
ATLAS 3B R/B 2.5 18:44:14 39° SW 18:46:55 78° WNW 18:53:34 10° NNE
USA 267 4.1 18:41:07 10° NNE 18:46:56 36° NW 18:49:28 26° WNW
Meteor 1-13 Rocket 4.2 18:43:43 24° S 18:47:19 86° E 18:53:00 10° N
Shenzhou-11 Module 4.3 18:48:57 15° ESE 18:48:57 15° ESE 18:49:55 10° E
STARLINK-1063 4.5 18:49:54 35° NW 18:50:02 35° NW 18:53:52 10° NNE
ARIANE 5 R/B 4.1 18:46:33 10° NNW 18:49:38 21° NW 18:49:38 21° NW
SL-16 R/B 2.0 18:47:51 10° NNW 18:53:32 77° WSW 18:59:10 10° SSE
CZ-2C R/B 2.7 18:52:36 10° NNE 18:57:07 60° E 19:01:34 10° S
ADEOS 3.6 18:59:13 10° NNE 19:04:27 85° ESE 19:09:28 11° SSW
Meteor 1-12 Rocket 4.2 19:00:59 10° NNW 19:06:55 74° W 19:12:42 10° S
Meteor 1-23 Rocket 4.4 19:06:00 10° S 19:11:40 75° E 19:17:26 10° NNE
PAYLOAD A 4.0 19:08:05 10° N 19:13:26 74° WNW 19:18:17 12° SSW
Cosmos 1674 Rocket 3.6 19:14:01 21° SSW 19:16:50 58° W 19:21:09 10° N
USA 234 3.9 19:11:37 10° ESE 19:17:58 56° NE 19:24:20 10° NW
CZ-4B R/B 1.9 19:18:55 30° SW 19:20:01 39° W 19:23:18 10° NNW
SeaSat 1 3.7 19:15:58 10° SE 19:20:37 45° ENE 19:25:19 10° N
Cosmos 1092 Rocket 4.0 19:14:46 10° SSW 19:21:05 71° W 19:27:24 10° N
Cosmos 2263 Rocket 2.1 19:18:07 12° SSW 19:23:21 83° WNW 19:29:04 10° NNE
ATLAS 5 CENTAUR R/B 3.2 19:17:27 10° NNW 19:23:22 56° ENE 19:30:02 10° SE
Meteor 1-4 Rocket 3.5 19:22:47 28° W 19:23:28 30° WNW 19:26:51 10° NNW
Cosmos 1818 3.5 19:23:20 10° NNW 19:28:46 77° WSW 19:34:09 10° SSE
Cosmos 2026 Rocket 3.9 19:26:27 10° S 19:32:34 79° W 19:38:40 10° N
Cosmos 1484 Rocket 3.7 19:28:57 10° NNE 19:32:37 49° E 19:36:14 10° S
EPKM 4.1 19:32:29 10° SSW 19:33:14 11° S 19:33:59 10° SSE
Cosmos 1867 4.0 19:33:38 17° WSW 19:37:26 43° WNW 19:42:39 10° NNE
CZ-4B R/B 3.6 19:33:22 10° NNE 19:37:45 63° E 19:42:12 10° S
Cosmos 1378 3.3 19:36:15 10° S 19:39:55 73° E 19:43:39 10° N
CENTAUR R/B 4.1 19:37:27 12° W 19:41:11 20° NW 19:46:01 10° N
Cosmos 1428 Rocket 4.4 19:36:34 10° SSW 19:42:38 73° W 19:48:49 10° N
Cosmos 1378 Rocket 4.5 19:52:01 10° SW 19:55:42 27° WNW 19:59:27 10° NNW
Okean O Rocket 4.5 19:55:24 10° NE 19:58:48 21° E 20:02:11 10° SE
Cosmos 1437 Rocket 3.1 19:55:33 10° SSW 19:59:29 47° W 20:03:27 10° N
Cosmos 2251 Rocket 3.8 19:56:20 10° NNW 20:01:42 78° ENE 20:06:58 10° SSE
Cosmos 1455 Rocket 4.3 19:59:26 10° N 20:03:45 48° E 20:08:03 10° SSE
Cosmos 1655 Rocket 4.2 20:00:54 10° S 20:07:17 86° E 20:13:38 10° N
ATLAS 5 CENTAUR R/B 3.3 20:05:41 10° WSW 20:09:19 19° WNW 20:11:23 10° N
Cosmos 1943 3.2 20:06:45 10° NNW 20:12:28 80° WSW 20:18:08 10° SSE
